When you browse on this site, cookies collect data to enhance your experience and personalize the content and advertising you see.
Visit our Privacy Policy to learn more. By continuing to use the site, you agree to this use of cookies and data.
  • In United Kingdom
  • List of Countries
  • For 7 days
  • Water Temperature
  • Satellite Maps
  • Weather Map
  • Weather Widgets
  • user-avatar
    Login

    Hourly Weather Ballycastle

    Today, 21 April, Sunday

    Time Temperature Precipitation Wind Pressure Humidity
    00:00 +11°C° 0 mm 4 mps 764 mmHg 86%
    01:00 +11°C° 0 mm 4 mps 764 mmHg 89%
    02:00 +11°C° 0 mm 4 mps 763 mmHg 92%
    03:00 +11°C° 0 mm 4 mps 763 mmHg 95%
    04:00 +11°C° 0 mm 4 mps 762 mmHg 95%
    05:00 +11°C° 0 mm 4 mps 762 mmHg 94%
    06:00 +11°C° 0 mm 4 mps 761 mmHg 94%
    07:00 +12°C° 0 mm 4 mps 761 mmHg 91%
    08:00 +13°C° 0 mm 4 mps 761 mmHg 89%
    09:00 +14°C° 0 mm 4 mps 760 mmHg 86%
    10:00 +16°C° 0 mm 5 mps 760 mmHg 83%
    11:00 +17°C° 0 mm 5 mps 759 mmHg 80%
    12:00 +19°C° 0 mm 5 mps 758 mmHg 78%
    13:00 +19°C° 0.1 mm 6 mps 758 mmHg 79%
    14:00 +17°C° 0.1 mm 6 mps 757 mmHg 81%
    15:00 +17°C° 0.1 mm 6 mps 756 mmHg 83%
    16:00 +17°C° 0 mm 6 mps 756 mmHg 83%
    17:00 +16°C° 0 mm 6 mps 755 mmHg 84%
    18:00 +16°C° 0 mm 6 mps 754 mmHg 85%
    19:00 +15°C° 0 mm 6 mps 754 mmHg 86%
    20:00 +14°C° 0 mm 6 mps 753 mmHg 87%
    21:00 +13°C° 0 mm 6 mps 753 mmHg 89%
    22:00 +11°C° 0 mm 6 mps 753 mmHg 85%
    23:00 +10°C° 0 mm 7 mps 752 mmHg 82%

    Tomorrow, 22 April, Monday

    Time Temperature Precipitation Wind Pressure Humidity
    00:00 +9°C° 0 mm 7 mps 752 mmHg 78%
    01:00 +9°C° 0 mm 7 mps 751 mmHg 79%
    02:00 +9°C° 0 mm 7 mps 751 mmHg 80%
    03:00 +8°C° 0 mm 7 mps 750 mmHg 80%
    04:00 +8°C° 0 mm 7 mps 750 mmHg 81%
    05:00 +8°C° 0 mm 7 mps 750 mmHg 81%
    06:00 +7°C° 0 mm 8 mps 749 mmHg 81%
    07:00 +10°C° 0 mm 8 mps 749 mmHg 79%
    08:00 +11°C° 0 mm 9 mps 749 mmHg 76%
    09:00 +13°C° 0 mm 9 mps 749 mmHg 73%
    10:00 +15°C° 0 mm 9 mps 749 mmHg 71%
    11:00 +15°C° 0 mm 9 mps 749 mmHg 68%
    12:00 +16°C° 0 mm 9 mps 748 mmHg 66%
    13:00 +16°C° 0 mm 9 mps 748 mmHg 67%
    14:00 +16°C° 0 mm 8 mps 748 mmHg 67%
    15:00 +16°C° 0 mm 8 mps 748 mmHg 68%
    16:00 +16°C° 0 mm 7 mps 747 mmHg 71%
    17:00 +15°C° 0 mm 7 mps 747 mmHg 74%
    18:00 +15°C° 0 mm 6 mps 747 mmHg 77%
    19:00 +14°C° 0 mm 5 mps 747 mmHg 77%
    20:00 +13°C° 0 mm 5 mps 747 mmHg 78%
    21:00 +12°C° 0 mm 4 mps 747 mmHg 79%
    22:00 +12°C° 0 mm 4 mps 747 mmHg 83%
    23:00 +12°C° 0 mm 5 mps 747 mmHg 86%

    Day after tomorrow, 23 April, Tuesday

    Time Temperature Precipitation Wind Pressure Humidity
    00:00 +10°C° 0 mm 5 mps 747 mmHg 90%
    01:00 +10°C° 0 mm 6 mps 747 mmHg 90%
    02:00 +10°C° 0 mm 6 mps 747 mmHg 90%
    03:00 +10°C° 0 mm 6 mps 746 mmHg 89%
    04:00 +9°C° 0 mm 6 mps 746 mmHg 90%
    05:00 +9°C° 0 mm 5 mps 746 mmHg 90%
    06:00 +9°C° 0 mm 5 mps 746 mmHg 90%
    07:00 +10°C° 0 mm 5 mps 746 mmHg 87%
    08:00 +12°C° 0 mm 5 mps 746 mmHg 84%
    09:00 +13°C° 0 mm 5 mps 746 mmHg 80%
    10:00 +14°C° 0 mm 6 mps 746 mmHg 79%
    11:00 +15°C° 0 mm 6 mps 746 mmHg 77%
    12:00 +15°C° 0 mm 6 mps 745 mmHg 76%
    13:00 +16°C° 0 mm 6 mps 745 mmHg 75%
    14:00 +16°C° 0 mm 7 mps 744 mmHg 75%
    15:00 +16°C° 0 mm 7 mps 744 mmHg 74%
    16:00 +16°C° 0 mm 7 mps 744 mmHg 75%
    17:00 +16°C° 0 mm 6 mps 744 mmHg 76%
    18:00 +16°C° 0 mm 6 mps 743 mmHg 77%
    19:00 +15°C° 0 mm 7 mps 744 mmHg 77%
    20:00 +13°C° 0 mm 8 mps 744 mmHg 77%
    21:00 +12°C° 0 mm 8 mps 744 mmHg 76%
    22:00 +11°C° 0 mm 8 mps 744 mmHg 77%
    23:00 +10°C° 0 mm 8 mps 744 mmHg 78%

    24 April, Wednesday

    Time Temperature Precipitation Wind Pressure Humidity
    00:00 +9°C° 0 mm 8 mps 744 mmHg 79%
    01:00 +9°C° 0 mm 8 mps 743 mmHg 82%
    02:00 +7°C° 0 mm 8 mps 743 mmHg 86%
    03:00 +8°C° 0 mm 7 mps 742 mmHg 89%
    04:00 +7°C° 0 mm 8 mps 742 mmHg 90%
    05:00 +7°C° 0 mm 8 mps 742 mmHg 90%
    06:00 +7°C° 0 mm 8 mps 741 mmHg 90%
    07:00 +9°C° 0 mm 8 mps 741 mmHg 89%
    08:00 +9°C° 0 mm 8 mps 741 mmHg 89%
    09:00 +10°C° 0 mm 8 mps 741 mmHg 88%
    10:00 +10°C° 0 mm 8 mps 741 mmHg 88%
    11:00 +10°C° 0 mm 7 mps 740 mmHg 88%
    12:00 +10°C° 0 mm 7 mps 740 mmHg 88%
    13:00 +9°C° 0.9 mm 7 mps 740 mmHg 90%
    14:00 +8°C° 0.9 mm 6 mps 740 mmHg 92%
    15:00 +7°C° 0.9 mm 6 mps 740 mmHg 94%
    16:00 +7°C° 0.7 mm 6 mps 740 mmHg 93%
    17:00 +8°C° 0.7 mm 5 mps 740 mmHg 92%
    18:00 +8°C° 0.7 mm 5 mps 741 mmHg 92%
    19:00 +7°C° 0 mm 5 mps 741 mmHg 92%
    20:00 +7°C° 0 mm 6 mps 741 mmHg 93%
    21:00 +5°C° 0 mm 6 mps 742 mmHg 94%
    22:00 +5°C° 0 mm 6 mps 742 mmHg 94%
    23:00 +5°C° 0 mm 5 mps 742 mmHg 94%

    25 April, Thursday

    Time Temperature Precipitation Wind Pressure Humidity
    00:00 +5°C° 0 mm 5 mps 742 mmHg 94%
    01:00 +4°C° 0.1 mm 6 mps 741 mmHg 94%
    02:00 +5°C° 0.1 mm 7 mps 741 mmHg 94%
    03:00 +5°C° 0.1 mm 8 mps 741 mmHg 94%
    04:00 +5°C° 0 mm 8 mps 740 mmHg 94%
    05:00 +5°C° 0 mm 8 mps 739 mmHg 95%
    06:00 +5°C° 0 mm 9 mps 739 mmHg 95%
    07:00 +6°C° 0.6 mm 9 mps 738 mmHg 92%
    08:00 +6°C° 0.6 mm 9 mps 738 mmHg 90%
    09:00 +7°C° 0.6 mm 10 mps 738 mmHg 88%
    10:00 +6°C° 0.6 mm 11 mps 737 mmHg 89%
    11:00 +5°C° 0.6 mm 13 mps 737 mmHg 89%
    12:00 +4°C° 0.6 mm 15 mps 737 mmHg 90%
    13:00 +5°C° 0.2 mm 15 mps 736 mmHg 90%
    14:00 +5°C° 0.2 mm 15 mps 736 mmHg 90%
    15:00 +5°C° 0.2 mm 15 mps 736 mmHg 90%
    16:00 +7°C° 0.3 mm 13 mps 736 mmHg 89%
    17:00 +8°C° 0.3 mm 11 mps 737 mmHg 89%
    18:00 +9°C° 0.3 mm 8 mps 737 mmHg 88%
    19:00 +8°C° 0.7 mm 9 mps 738 mmHg 90%
    20:00 +7°C° 0.7 mm 9 mps 739 mmHg 92%
    21:00 +6°C° 0.7 mm 9 mps 739 mmHg 93%
    22:00 +6°C° 0.1 mm 9 mps 740 mmHg 93%
    23:00 +5°C° 0.1 mm 9 mps 741 mmHg 92%

    26 April, Friday

    Time Temperature Precipitation Wind Pressure Humidity
    00:00 +4°C° 0.1 mm 8 mps 741 mmHg 92%
    01:00 +4°C° 0 mm 8 mps 742 mmHg 93%
    02:00 +3°C° 0 mm 7 mps 742 mmHg 94%
    03:00 +3°C° 0 mm 7 mps 742 mmHg 95%
    04:00 +3°C° 0 mm 7 mps 743 mmHg 95%
    05:00 +3°C° 0 mm 7 mps 743 mmHg 95%
    06:00 +2°C° 0 mm 8 mps 744 mmHg 95%
    07:00 +3°C° 0.4 mm 9 mps 745 mmHg 93%
    08:00 +3°C° 0.4 mm 9 mps 745 mmHg 90%
    09:00 +5°C° 0.4 mm 10 mps 746 mmHg 87%
    10:00 +6°C° 0 mm 9 mps 747 mmHg 77%
    11:00 +8°C° 0 mm 7 mps 747 mmHg 67%
    12:00 +9°C° 0 mm 6 mps 748 mmHg 57%
    13:00 +9°C° 0 mm 8 mps 748 mmHg 60%
    14:00 +8°C° 0 mm 9 mps 747 mmHg 63%
    15:00 +8°C° 0 mm 11 mps 747 mmHg 66%
    16:00 +7°C° 0.5 mm 13 mps 745 mmHg 75%
    17:00 +5°C° 0.5 mm 16 mps 743 mmHg 83%
    18:00 +5°C° 0.5 mm 18 mps 741 mmHg 92%
    19:00 +3°C° 0.6 mm 17 mps 740 mmHg 88%
    20:00 +2°C° 0.6 mm 16 mps 739 mmHg 85%
    21:00 +1°C° 0.6 mm 15 mps 738 mmHg 81%
    22:00 +1°C° 0 mm 16 mps 738 mmHg 79%
    23:00 +1°C° 0 mm 17 mps 738 mmHg 77%
    Show more